"Pseudo-MPEC" for 2010-050A = SM999CF = Chang'e 2 probe

Created Sun Sep 09 20:48:22 2012 using Find_Orb

(I've updated this to include new observations. These reduce the uncertainties and allow for an orbit that includes solar radiation pressure, but don't really affect the comments given below.)

You can get customized ephemerides for this object from the Minor Planet Center's Distant Artificial Satellites Observation page; or you can copy and paste the astrometry into Find_Orb and do it yourself. The following ephemerides are geocentric, and the object is close enough to have some significant parallax.

I wrote up a more extended version of the following comments here, on the Planetary Society blog.

According to this post and this page, Chang'e 2 left the earth-sun L2 point in mid-April 2012 and is headed for an encounter with (4179) Toutatis on 2013 January 6. The following astrometry matches that idea pretty well, except that it indicated a flyby of Toutatis on 2012 December 13.

My current guess is that the mid-December date is correct. You can fit an orbit to the current (as of 18 August) observations and get a positional match, at 08:27 UT on 13 December, within better than an arcminute, with a close match in distance as well. Toutatis comes to its closest approach to earth (0.046 AU) on the preceding day. By 2013 January 6, it will be 0.189 AU away, about four times as far. To trust the January date, one would have to believe that the Chinese set Chang'e 2 on course to encounter Toutatis at its closest, but plan sometime between now and January to do a maneuver to push that encounter further away from the earth. None of which makes sense to me.

Further astrometry should allow refinement of the trajectory so that I can be more confident about the encounter time.

Click here for previous data on this probe. (It was originally sent to orbit the moon, then maneuvered in 2011 June to go to the Earth-Sun L2 point. Astrometry was gathered while on the way to, and while at, L2.)

Also, there is a page for the booster for Chang'e 2. The booster has been tracked, and is chaotically orbiting the earth-moon system. It will probably be ejected in a few years or decades. (Unless we're very lucky and it hits the earth or moon, but that's not very likely.)

Astrometry:
2010-050A     C2012 08 08.39208 21 46 10.571+07 01 04.89         19.8 r D0446F51
2010-050A     C2012 08 08.40238 21 46 08.562+07 01 05.77         19.8 r D0446F51
2010-050A     C2012 08 08.41434 21 46 06.154+07 01 06.33         19.3 i D0446F51
2010-050A     C2012 08 08.42590 21 46 03.750+07 01 06.44         19.4 i D0446F51
2010-050A    KC2012 08 09.10042 21 46 22.04 +06 55 00.2          18.6 V D0446I93
2010-050A    KC2012 08 09.10766 21 46 21.11 +06 54 57.9          19.1 V D0446I93
2010-050A    KC2012 08 09.32361 21 46 43.75 +06 55 25.5          18.8 R D0446H36
2010-050A    KC2012 08 09.32767 21 46 43.06 +06 55 24.4          18.7 R D0446H36
2010-050A    KC2012 08 09.33853 21 46 41.25 +06 55 21.1          18.9 R D0446H36
2010-050A     C2012 08 09.37924 21 46 41.02 +06 56 03.5          19.4 R D0446H01
2010-050A     C2012 08 09.38486 21 46 40.06 +06 56 01.5          19.4 R D0446H01
2010-050A     C2012 08 09.39363 21 46 38.62 +06 55 58.4          19.2 R D0446H01
2010-050A     C2012 08 09.40116 21 46 37.42 +06 55 55.3          19.3 R D0446H01
2010-050A    KC2012 08 09.88603 21 47 47.44 +06 52 26.5          19.1 R D0446104
2010-050A    KC2012 08 09.89426 21 47 46.52 +06 52 26.8                 D0446104
2010-050A    KC2012 08 09.89569 21 47 46.32 +06 52 26.4                 D0446104
2010-050A    KC2012 08 09.89827 21 47 48.39 +06 51 11.1          18.9 R D0446J95
2010-050A    KC2012 08 09.90178 21 47 48.11 +06 51 11.3          18.8 R D0446J95
2010-050A    KC2012 08 09.90604 21 47 47.83 +06 51 11.1          19.7 R D0446J95
2010-050A    KC2012 08 10.17857 21 48 17.04 +06 53 08.4          17.2 R D0447291
2010-050A    KC2012 08 10.18111 21 48 16.80 +06 53 09.1          17.2 R D0447291
2010-050A    KC2012 08 10.18365 21 48 16.58 +06 53 09.5          18.0 R D0447291
2010-050A    KC2012 08 18.01241 21 54 17.05 +05 45 11.7                 D0448J95
2010-050A    KC2012 08 18.01877 21 54 16.21 +05 45 06.7          19.2 R D0448J95
2010-050A    KC2012 08 18.02512 21 54 15.30 +05 45 02.1          18.0 R D0448J95
2010-050A    KC2012 08 18.95412 21 55 08.56 +05 33 04.8          18.8 R D0449J95
2010-050A    KC2012 08 18.95893 21 55 07.94 +05 33 01.4          18.6 R D0449J95
2010-050A    KC2012 08 18.96372 21 55 07.30 +05 32 58.0          18.8 R D0449J95
2010-050A    KC2012 08 18.96849 21 55 06.67 +05 32 54.6          18.8 R D0449J95
2010-050A     C2012 08 25.17615 22 00 18.90 +04 00 06.0          18.7 V D0449703
2010-050A     C2012 08 25.18134 22 00 18.25 +04 00 01.1          18.6 V D0449703
2010-050A     C2012 08 25.18652 22 00 17.60 +03 59 56.7          18.6 V D0449703
2010-050A     C2012 08 25.19172 22 00 16.77 +03 59 52.8          18.1 V D0449703
2010-050A     C2012 09 06.41361722 12 19.584+00 08 24.49         19.3 g D0452F51
2010-050A     C2012 09 06.41509822 12 19.329+00 08 22.97         19.4 g D0452F51
2010-050A     C2012 09 06.41955422 12 18.498+00 08 17.17         19.9 g D0452F51
2010-050A     C2012 09 06.42105622 12 18.217+00 08 15.25         19.8 g D0452F51
2010-050A     C2012 09 06.42606422 12 17.299+00 08 09.05         18.9 r D0452F51
2010-050A     C2012 09 06.42754622 12 17.028+00 08 07.10         18.9 r D0452F51
2010-050A     C2012 09 06.42903522 12 16.750+00 08 05.20         19.1 r D0452F51
2010-050A     C2012 09 06.43052322 12 16.465+00 08 03.38         19.0 r D0452F51
2010-050A     C2012 09 06.43200822 12 16.209+00 08 01.50         19.0 r D0452F51
2010-050A     C2012 09 06.43349522 12 15.922+00 07 59.64         18.9 r D0452F51
2010-050A     C2012 09 06.43497522 12 15.675+00 07 57.80         18.6 r D0452F51

Station data:
(104) San Marcello Pistoiese (N44.0631 E10.8042).  0.40-m f/5 reflector.
(291) LPL/Spacewatch II (N31.9617 W111.5991).  1.8-m f/2.7 reflector.
(703) Catalina Sky Survey (N32.41712 W110.73264).   Observers S. Larson, E.
    Beshore, E. Christensen, R. Hill, S. Howard, D. McLean.  Measurer E.
    Christensen.  0.68 m Schmidt + CCD.
(F51) Pan-STARRS 1, Haleakala (N20.70720 W156.25591).   Observers N. Primak,
    A. Schultz, S. Watters, J. Thiel, T. Goggia.  Measurer PS1 Science
    Consortium.  1.8-m Ritchey-Chretien + CCD.
(H01) Magdalena Ridge Observatory, Socorro (N33.9853 W107.1892).   Observers
    W. H. Ryan, E. V. Ryan.  Measurer W. H. Ryan.  2.4-m f/8.9 reflector + CCD.
(H36) Sandlot Observatory, Scranton (N38.7977 W95.7064).   Observer G. Hug.
    0.56-m reflector + CCD.
(I93) St Pardon de Conques (N44.55876 W0.20300).
(J95) Great Shefford (N51.47502 W1.44700).   Observer P. Birtwhistle.  0.30-m
    f/6.3 Schmidt-Cassegrain + CCD.

Orbital elements:
2010-050A = SM999CF = Chang'e 2 probe
   Perihelion 2012 Oct 2.795839 TT = 19:06:00 (JD 2456203.295839)
Epoch 2012 Aug  9.0 TT; AMR 0.027127 m2/kg             Find_Orb
M 308.26322              (2000.0)            P               Q
n   0.94417344     Peri.  157.06254      0.98741317     -0.15814671
a   1.02904617     Node   212.03704      0.14446040      0.90744837
e   0.0061414      Incl.    0.23758      0.06439265      0.38926477
P   1.04/381.28d   H   27.6     U  5.2     q 1.02272629  Q 1.03536605
From 44 observations 2012 Aug. 8-Sept. 6; mean residual 0".312.

Residuals in arcseconds:
120808 F51  .05+  .22-    120809 104  1.1-  .08-    120825 703  .15-  .30-
120808 F51  .01-  .17-    120809 J95  .31+  .27-    120825 703  .21+  .27-
120808 F51  .05+  .16-    120809 J95  .22-  .15-    120825 703  1.7-  .32+
120808 F51  .00   .15-    120809 J95  .24+  .41-    120906 F51  .20-  .12-
120809 I93  .37+  .18-    120810 291  .32+  .15-    120906 F51  .11+  .22+
120809 I93  .01+  .06+    120810 291  .00   .20+    120906 F51  .08+  .01+
120809 H36  .37+  .34+    120810 291  .10+  .27+    120906 F51  .04+  .02-
120809 H36  .13+  .35+    120818 J95  .20+  .14-    120906 F51  .13+  .07+
120809 H36  .43-  .25+    120818 J95  .85+  .35-    120906 F51  .15+  .02-
120809 H01  .15+  .03+    120818 J95  .40+  .10-    120906 F51  .07+  .05-
120809 H01  .01+  .00     120818 J95  .21+  .07+    120906 F51  .12-  .00
120809 H01  .08+  .15+    120818 J95  .25+  .07+    120906 F51  .10+  .02-
120809 H01  .06+  .01+    120818 J95  .07+  .11+    120906 F51  .15-  .01-
120809 104  .55-  .15+    120818 J95  .10+  .16+    120906 F51  .17+  .01+
120809 104  .60-  .33+    120825 703  .12-  .19+

